Location: USNO
(38.9242°N, 77.0663°W)
Time: 05:27:19
(UTC-04:00)

ISS - Pass Details

Date: 15 October 2017
Orbit: 400 x 408 km, 51.6° (Epoch: 24 October)

Event Time Altitude Azimuth Distance (km) Brightness Sun altitude
Rises 20:10:35 0° 296° (WNW) 2,324 1.3 -20.4°
Reaches altitude 10° 20:12:59 10° 279° (W) 1,462 0.2 -20.9°
Maximum altitude 20:15:31 21° 228° (SW) 980 -1.5 -21.4°
Enters shadow 20:16:50 16° 196° (SSW) 1,131 -1.5 -21.7°
